Showing default

KANOPUS-V 4, 43181

Orbit data source: Space-Track

KANOPUS-V 4, 43181 is a payload satellite owned by VNIIEM (CIS) in SSO that was launched on Thu, 01 Feb 2018 UTC via a SOYUZ-2-1A launch vehicle from the Vostochny Cosmodrome (VOSTO). Payload-class satellites include a variety of spacecraft equipped with specific instruments for various scientific and technological missions. These include communications satellites like Starlink; space stations such as the ISS; scientific satellites like the Hubble; Earth observation satellites from companies like Planet Labs, Umbra, and HawkEye 360; GPS; miniature CubeSats for education and research; and military/defense satellites.

Loading next visibility...
Identifier
43181, 2018-014B
Orbit
SSO
Country
Flag of CISCIS
Related business
Manufacturer
VNIIEM
Mission
Operational Civil Imaging
Bus & Motor
KANOPUS, Unknown motor
Mass
490 kg wet, 490 kg dry
Launch date (UTC)
2018-02-01 (8 years ago)
Launch vehicle
SOYUZ-2-1A
Launch site
Vostochny Cosmodrome (VOSTO)
Object type
Payload
Rocket body
Debris
Shape & HBR
Box + 2 Pan, 3.0 m
Radar Cross Section
1.665 m², Large (>1 m²)

Expand to show TLE details & history
Last TLE update: 10 hours ago

TLE from 10 hours ago
0 KANOPUS-V 4
1 43181U 18014B   26150.89681419  .00003429  00000-0  14932-3 0  9991
2 43181  97.3610  56.9250 0001985  81.4412 278.7050 15.22881298462103
Epoch: 2026-05-30T21:31Z
TLE epoch observation values (Epoch: 2026-05-30T21:31:24.746Z)
Latitude
0.00004°
Longitude
-154.33437°
Altitude
500.044 km
Speed
7.615 km/s
True Right ascension
03h 47m 41s
True Declination
0° 00' 00"
Sunlit
Object was in daylight at epoch
Visualization orbit readout
Latitude
Unknown
Longitude
Unknown
Altitude
Unknown
Speed
Unknown
Apparent Right ascension
Unknown
Apparent Declination
Unknown
Sunlit
N/A
Visualization observer readout
Local Sidereal Time
16:51:53
Azimuth
Unknown
Elevation
Unknown
Doppler factor
Unknown
Orbital elements
Apogee altitude
495.479 km
Perigee altitude
492.751 km
Semi-major axis
6,872.252 km
Eccentricity
0.0002
Inclination
97.361°
RAAN
56.925°
Arg. of periapsis
81.4412°
True anomaly
278.68251°
Mean anomaly
278.705°
Eccentric anomaly
278.69376°
Mean motion
3.80973 °/min
Orbital period
94.49 mins
BSTAR
0.00014932
Loading maneuver chart data...
Computing Atmospheric mass density...
Loading historical data...
Loading historical data...
Loading historical data...
Loading historical data...
Loading historical data...
Loading historical data...
Loading historical data...

Documentation

Showing up to 5 results
|